Time,TemperatureF,DewpointF,PressureIn,WindDirection,WindDirectionDegrees,WindSpeedMPH,WindSpeedGustMPH,Humidity,HourlyPrecipIn,Conditions,Clouds,dailyrainin,SolarRadiationWatts/m^2,SoftwareType,DateUTC
2013-04-06 00:00:00,30.5,21.2,30.14,WNW,295,5.0,9.0,68,0.00,,,0.00,0,WxPro DR1,2013-04-06 04:00:00,
2013-04-06 00:05:00,30.4,21.1,30.14,WSW,258,1.0,7.0,68,0.00,,,0.00,0,WxPro DR1,2013-04-06 04:05:00,
2013-04-06 00:10:00,30.3,21.0,30.15,WNW,303,3.0,7.0,68,0.00,,,0.00,0,WxPro DR1,2013-04-06 04:10:00,
2013-04-06 00:15:00,30.2,21.0,30.15,WNW,296,3.0,7.0,68,0.00,,,0.00,0,WxPro DR1,2013-04-06 04:15:00,
2013-04-06 00:20:00,30.1,20.9,30.15,West,279,2.0,7.0,68,0.00,,,0.00,0,WxPro DR1,2013-04-06 04:20:00,
2013-04-06 00:25:00,30.0,21.1,30.16,WNW,282,0.0,6.0,69,0.00,,,0.00,0,WxPro DR1,2013-04-06 04:25:00,
2013-04-06 00:30:00,29.8,20.9,30.16,WNW,286,2.0,6.0,69,0.00,,,0.00,0,WxPro DR1,2013-04-06 04:30:00,
2013-04-06 00:35:00,29.8,20.9,30.16,WNW,288,1.0,6.0,69,0.00,,,0.00,0,WxPro DR1,2013-04-06 04:35:00,
2013-04-06 00:40:00,29.7,20.8,30.16,WNW,294,0.0,6.0,69,0.00,,,0.00,0,WxPro DR1,2013-04-06 04:40:00,
2013-04-06 00:45:00,29.7,21.1,30.16,WNW,286,0.0,5.0,70,0.00,,,0.00,0,WxPro DR1,2013-04-06 04:45:00,
2013-04-06 00:50:00,29.6,21.0,30.16,WNW,299,3.0,8.0,70,0.00,,,0.00,0,WxPro DR1,2013-04-06 04:50:00,
2013-04-06 00:55:00,29.6,21.0,30.17,NW,305,1.0,8.0,70,0.00,,,0.00,0,WxPro DR1,2013-04-06 04:55:00,
2013-04-06 01:00:00,29.5,20.9,30.17,WNW,299,3.0,6.0,70,0.00,,,0.00,0,WxPro DR1,2013-04-06 05:00:00,
2013-04-06 01:05:00,29.4,20.9,30.18,West,276,0.0,11.0,70,0.00,,,0.00,0,WxPro DR1,2013-04-06 05:05:00,
2013-04-06 01:10:00,29.3,21.1,30.18,NW,311,0.0,11.0,71,0.00,,,0.00,0,WxPro DR1,2013-04-06 05:10:00,
2013-04-06 01:15:00,29.3,21.0,30.18,West,277,3.0,6.0,71,0.00,,,0.00,0,WxPro DR1,2013-04-06 05:15:00,
2013-04-06 01:20:00,29.2,21.0,30.18,WNW,300,4.0,11.0,71,0.00,,,0.00,0,WxPro DR1,2013-04-06 05:20:00,
2013-04-06 01:26:00,29.2,21.0,30.18,NW,311,4.0,11.0,71,0.00,,,0.00,0,WxPro DR1,2013-04-06 05:26:00,
2013-04-06 01:31:00,29.2,21.0,30.18,WNW,299,2.0,6.0,71,0.00,,,0.00,0,WxPro DR1,2013-04-06 05:31:00,
2013-04-06 01:36:00,29.2,21.0,30.18,NW,322,5.0,6.0,71,0.00,,,0.00,0,WxPro DR1,2013-04-06 05:36:00,
2013-04-06 01:41:00,29.2,21.0,30.19,WNW,295,2.0,6.0,71,0.00,,,0.00,0,WxPro DR1,2013-04-06 05:41:00,
2013-04-06 01:46:00,29.2,21.0,30.19,WNW,294,0.0,6.0,71,0.00,,,0.00,0,WxPro DR1,2013-04-06 05:46:00,
2013-04-06 01:51:00,29.1,20.9,30.19,SW,232,1.0,4.0,71,0.00,,,0.00,0,WxPro DR1,2013-04-06 05:51:00,
2013-04-06 01:56:00,29.0,21.1,30.19,West,260,0.0,5.0,72,0.00,,,0.00,0,WxPro DR1,2013-04-06 05:56:00,
2013-04-06 02:01:00,28.9,21.0,30.19,West,265,0.0,5.0,72,0.00,,,0.00,0,WxPro DR1,2013-04-06 06:01:00,
2013-04-06 02:06:00,28.8,20.9,30.20,West,265,1.0,4.0,72,0.00,,,0.00,0,WxPro DR1,2013-04-06 06:06:00,
2013-04-06 02:11:00,28.7,20.8,30.20,West,265,1.0,4.0,72,0.00,,,0.00,0,WxPro DR1,2013-04-06 06:11:00,
2013-04-06 02:16:00,28.5,20.7,30.20,West,265,0.0,3.0,72,0.00,,,0.00,0,WxPro DR1,2013-04-06 06:16:00,
2013-04-06 02:21:00,28.4,20.5,30.20,West,265,1.0,4.0,72,0.00,,,0.00,0,WxPro DR1,2013-04-06 06:21:00,
2013-04-06 02:26:00,28.3,20.7,30.20,West,265,1.0,4.0,73,0.00,,,0.00,0,WxPro DR1,2013-04-06 06:26:00,
2013-04-06 02:31:00,28.1,20.6,30.20,West,266,1.0,3.0,73,0.00,,,0.00,0,WxPro DR1,2013-04-06 06:31:00,
2013-04-06 02:36:00,28.0,20.8,30.21,West,265,0.0,3.0,74,0.00,,,0.00,0,WxPro DR1,2013-04-06 06:36:00,
2013-04-06 02:41:00,27.8,20.6,30.21,West,266,1.0,3.0,74,0.00,,,0.00,0,WxPro DR1,2013-04-06 06:41:00,
2013-04-06 02:46:00,27.6,20.4,30.21,West,264,0.0,4.0,74,0.00,,,0.00,0,WxPro DR1,2013-04-06 06:46:00,
2013-04-06 02:51:00,27.5,20.4,30.21,West,264,0.0,4.0,74,0.00,,,0.00,0,WxPro DR1,2013-04-06 06:51:00,
2013-04-06 02:56:00,27.4,20.6,30.21,West,265,0.0,2.0,75,0.00,,,0.00,0,WxPro DR1,2013-04-06 06:56:00,
2013-04-06 03:01:00,27.3,20.4,30.21,West,265,0.0,2.0,75,0.00,,,0.00,0,WxPro DR1,2013-04-06 07:01:00,
2013-04-06 03:06:00,27.0,20.5,30.21,West,265,0.0,1.0,76,0.00,,,0.00,0,WxPro DR1,2013-04-06 07:06:00,
2013-04-06 03:11:00,26.8,20.2,30.21,West,265,0.0,1.0,76,0.00,,,0.00,0,WxPro DR1,2013-04-06 07:11:00,
2013-04-06 03:16:00,26.5,19.9,30.22,West,265,0.0,0.0,76,0.00,,,0.00,0,WxPro DR1,2013-04-06 07:16:00,
2013-04-06 03:21:00,26.2,20.0,30.22,West,265,0.0,0.0,77,0.00,,,0.00,0,WxPro DR1,2013-04-06 07:21:00,
2013-04-06 03:26:00,25.9,19.7,30.22,West,265,0.0,1.0,77,0.00,,,0.00,0,WxPro DR1,2013-04-06 07:26:00,
2013-04-06 03:31:00,25.7,19.7,30.23,West,265,0.0,1.0,78,0.00,,,0.00,0,WxPro DR1,2013-04-06 07:31:00,
2013-04-06 03:36:00,25.5,19.6,30.23,West,265,0.0,0.0,78,0.00,,,0.00,0,WxPro DR1,2013-04-06 07:36:00,
2013-04-06 03:41:00,25.4,19.5,30.23,West,265,1.0,1.0,78,0.00,,,0.00,0,WxPro DR1,2013-04-06 07:41:00,
2013-04-06 03:46:00,25.4,19.8,30.23,West,264,0.0,1.0,79,0.00,,,0.00,0,WxPro DR1,2013-04-06 07:46:00,
2013-04-06 03:51:00,25.6,20.0,30.23,West,265,0.0,2.0,79,0.00,,,0.00,0,WxPro DR1,2013-04-06 07:51:00,
2013-04-06 03:56:00,25.7,19.8,30.23,West,265,0.0,2.0,78,0.00,,,0.00,0,WxPro DR1,2013-04-06 07:56:00,
2013-04-06 04:01:00,25.7,19.8,30.23,West,265,0.0,2.0,78,0.00,,,0.00,0,WxPro DR1,2013-04-06 08:01:00,
2013-04-06 04:06:00,25.7,19.9,30.23,West,265,0.0,2.0,78,0.00,,,0.00,0,WxPro DR1,2013-04-06 08:06:00,
2013-04-06 04:11:00,25.6,20.0,30.24,West,265,0.0,2.0,79,0.00,,,0.00,0,WxPro DR1,2013-04-06 08:11:00,
2013-04-06 04:17:00,25.6,20.0,30.24,West,265,0.0,2.0,79,0.00,,,0.00,0,WxPro DR1,2013-04-06 08:17:00,
2013-04-06 04:22:00,25.4,19.6,30.24,West,264,0.0,1.0,78,0.00,,,0.00,0,WxPro DR1,2013-04-06 08:22:00,
2013-04-06 04:27:00,25.1,19.6,30.24,West,265,0.0,0.0,79,0.00,,,0.00,0,WxPro DR1,2013-04-06 08:27:00,
2013-04-06 04:32:00,24.9,19.4,30.24,West,265,0.0,0.0,79,0.00,,,0.00,0,WxPro DR1,2013-04-06 08:32:00,
2013-04-06 04:37:00,24.8,19.3,30.24,West,265,0.0,0.0,79,0.00,,,0.00,0,WxPro DR1,2013-04-06 08:37:00,
2013-04-06 04:42:00,24.7,19.5,30.24,West,265,0.0,1.0,80,0.00,,,0.00,0,WxPro DR1,2013-04-06 08:42:00,
2013-04-06 04:47:00,24.6,19.4,30.24,West,265,0.0,1.0,80,0.00,,,0.00,0,WxPro DR1,2013-04-06 08:47:00,
2013-04-06 04:52:00,24.4,19.2,30.25,West,265,0.0,0.0,80,0.00,,,0.00,0,WxPro DR1,2013-04-06 08:52:00,
2013-04-06 04:57:00,24.3,19.0,30.25,West,265,0.0,0.0,80,0.00,,,0.00,0,WxPro DR1,2013-04-06 08:57:00,
2013-04-06 05:02:00,24.1,19.1,30.25,West,264,0.0,0.0,81,0.00,,,0.00,0,WxPro DR1,2013-04-06 09:02:00,
2013-04-06 05:07:00,23.8,18.9,30.25,West,265,0.0,0.0,81,0.00,,,0.00,0,WxPro DR1,2013-04-06 09:07:00,
2013-04-06 05:12:00,23.7,19.0,30.25,West,265,0.0,0.0,82,0.00,,,0.00,0,WxPro DR1,2013-04-06 09:12:00,
2013-04-06 05:17:00,23.6,18.9,30.25,West,265,0.0,0.0,82,0.00,,,0.00,0,WxPro DR1,2013-04-06 09:17:00,
2013-04-06 05:22:00,23.6,18.9,30.25,West,264,0.0,0.0,82,0.00,,,0.00,0,WxPro DR1,2013-04-06 09:22:00,
2013-04-06 05:27:00,23.6,18.9,30.25,West,264,0.0,0.0,82,0.00,,,0.00,0,WxPro DR1,2013-04-06 09:27:00,
2013-04-06 05:32:00,23.6,19.2,30.26,West,265,0.0,0.0,83,0.00,,,0.00,0,WxPro DR1,2013-04-06 09:32:00,
2013-04-06 05:37:00,23.5,18.8,30.26,West,265,0.0,0.0,82,0.00,,,0.00,0,WxPro DR1,2013-04-06 09:37:00,
2013-04-06 05:42:00,23.4,19.0,30.26,West,265,0.0,0.0,83,0.00,,,0.00,0,WxPro DR1,2013-04-06 09:42:00,
2013-04-06 05:47:00,23.3,18.9,30.26,West,265,0.0,0.0,83,0.00,,,0.00,0,WxPro DR1,2013-04-06 09:47:00,
2013-04-06 05:52:00,23.1,18.8,30.26,West,265,0.0,0.0,83,0.00,,,0.00,0,WxPro DR1,2013-04-06 09:52:00,
2013-04-06 05:57:00,22.9,18.6,30.27,West,265,0.0,0.0,83,0.00,,,0.00,0,WxPro DR1,2013-04-06 09:57:00,
2013-04-06 06:02:00,22.8,18.7,30.27,West,265,0.0,0.0,84,0.00,,,0.00,0,WxPro DR1,2013-04-06 10:02:00,
2013-04-06 06:07:00,22.8,18.7,30.27,West,265,0.0,0.0,84,0.00,,,0.00,0,WxPro DR1,2013-04-06 10:07:00,
2013-04-06 06:12:00,22.6,18.5,30.27,West,265,0.0,0.0,84,0.00,,,0.00,0,WxPro DR1,2013-04-06 10:12:00,
2013-04-06 06:17:00,22.5,18.4,30.27,West,265,0.0,0.0,84,0.00,,,0.00,0,WxPro DR1,2013-04-06 10:17:00,
2013-04-06 06:22:00,22.4,18.5,30.27,West,265,0.0,0.0,85,0.00,,,0.00,0,WxPro DR1,2013-04-06 10:22:00,
2013-04-06 06:27:00,22.2,18.4,30.28,West,265,0.0,0.0,85,0.00,,,0.00,0,WxPro DR1,2013-04-06 10:27:00,
2013-04-06 06:32:00,22.1,18.3,30.28,West,264,0.0,0.0,85,0.00,,,0.00,0,WxPro DR1,2013-04-06 10:32:00,
2013-04-06 06:37:00,22.0,18.2,30.28,West,265,0.0,1.0,85,0.00,,,0.00,0,WxPro DR1,2013-04-06 10:37:00,
2013-04-06 06:42:00,21.8,18.3,30.28,West,265,0.0,1.0,86,0.00,,,0.00,0,WxPro DR1,2013-04-06 10:42:00,
2013-04-06 06:47:00,21.6,18.1,30.28,West,264,0.0,1.0,86,0.00,,,0.00,5,WxPro DR1,2013-04-06 10:47:00,
2013-04-06 06:52:00,21.5,18.0,30.28,West,265,0.0,0.0,86,0.00,,,0.00,9,WxPro DR1,2013-04-06 10:52:00,
2013-04-06 06:57:00,21.6,18.2,30.28,West,265,0.0,0.0,86,0.00,,,0.00,12,WxPro DR1,2013-04-06 10:57:00,
2013-04-06 07:02:00,21.7,18.4,30.28,West,265,0.0,0.0,87,0.00,,,0.00,14,WxPro DR1,2013-04-06 11:02:00,
2013-04-06 07:07:00,21.7,18.4,30.29,West,265,0.0,0.0,87,0.00,,,0.00,19,WxPro DR1,2013-04-06 11:07:00,
2013-04-06 07:12:00,21.8,18.5,30.29,West,265,0.0,0.0,87,0.00,,,0.00,25,WxPro DR1,2013-04-06 11:12:00,
2013-04-06 07:17:00,22.0,18.8,30.29,West,264,0.0,0.0,87,0.00,,,0.00,33,WxPro DR1,2013-04-06 11:17:00,
2013-04-06 07:22:00,22.4,19.4,30.30,West,265,0.0,0.0,88,0.00,,,0.00,42,WxPro DR1,2013-04-06 11:22:00,
2013-04-06 07:27:00,23.0,20.0,30.30,West,264,0.0,0.0,88,0.00,,,0.00,58,WxPro DR1,2013-04-06 11:27:00,
2013-04-06 07:32:00,23.5,20.2,30.30,West,265,0.0,0.0,87,0.00,,,0.00,70,WxPro DR1,2013-04-06 11:32:00,
2013-04-06 07:33:00,23.6,20.3,30.30,West,264,0.0,0.0,87,0.00,,,0.00,70,WxPro DR1,2013-04-06 11:33:00,
2013-04-06 07:38:00,24.1,20.8,30.30,West,265,0.0,1.0,87,0.00,,,0.00,100,WxPro DR1,2013-04-06 11:38:00,
2013-04-06 07:43:00,24.9,21.6,30.30,West,265,0.0,1.0,87,0.00,,,0.00,116,WxPro DR1,2013-04-06 11:43:00,
2013-04-06 07:48:00,25.7,22.1,30.31,West,265,0.0,1.0,86,0.00,,,0.00,134,WxPro DR1,2013-04-06 11:48:00,
2013-04-06 07:53:00,26.5,22.6,30.31,West,265,0.0,1.0,85,0.00,,,0.00,155,WxPro DR1,2013-04-06 11:53:00,
2013-04-06 07:58:00,27.2,23.0,30.31,West,265,0.0,1.0,84,0.00,,,0.00,178,WxPro DR1,2013-04-06 11:58:00,
2013-04-06 08:03:00,27.9,23.3,30.31,West,265,0.0,1.0,83,0.00,,,0.00,200,WxPro DR1,2013-04-06 12:03:00,
2013-04-06 08:08:00,28.5,23.3,30.32,West,265,0.0,2.0,81,0.00,,,0.00,223,WxPro DR1,2013-04-06 12:08:00,
2013-04-06 08:13:00,29.0,23.3,30.32,West,265,0.0,3.0,79,0.00,,,0.00,241,WxPro DR1,2013-04-06 12:13:00,
2013-04-06 08:18:00,29.6,23.6,30.32,West,264,0.0,3.0,78,0.00,,,0.00,262,WxPro DR1,2013-04-06 12:18:00,
2013-04-06 08:23:00,30.4,24.0,30.32,West,264,0.0,2.0,77,0.00,,,0.00,278,WxPro DR1,2013-04-06 12:23:00,
2013-04-06 08:28:00,30.8,23.8,30.32,West,265,0.0,2.0,75,0.00,,,0.00,295,WxPro DR1,2013-04-06 12:28:00,
2013-04-06 08:33:00,31.0,23.4,30.32,West,265,0.0,3.0,73,0.00,,,0.00,313,WxPro DR1,2013-04-06 12:33:00,
2013-04-06 08:38:00,31.4,23.8,30.32,West,265,1.0,3.0,73,0.00,,,0.00,330,WxPro DR1,2013-04-06 12:38:00,
2013-04-06 08:43:00,31.8,23.5,30.32,West,264,2.0,3.0,71,0.00,,,0.00,348,WxPro DR1,2013-04-06 12:43:00,
2013-04-06 08:48:00,32.0,23.3,30.32,West,265,0.0,2.0,70,0.00,,,0.00,367,WxPro DR1,2013-04-06 12:48:00,
2013-04-06 08:53:00,32.2,23.2,30.32,West,265,0.0,2.0,69,0.00,,,0.00,380,WxPro DR1,2013-04-06 12:53:00,
2013-04-06 08:58:00,32.7,22.5,30.32,NNW,332,0.0,4.0,66,0.00,,,0.00,397,WxPro DR1,2013-04-06 12:58:00,
2013-04-06 09:03:00,33.3,22.0,30.32,North,1,3.0,4.0,63,0.00,,,0.00,415,WxPro DR1,2013-04-06 13:03:00,
2013-04-06 09:08:00,34.0,22.0,30.31,North,1,2.0,4.0,61,0.00,,,0.00,432,WxPro DR1,2013-04-06 13:08:00,
2013-04-06 09:13:00,34.9,21.7,30.32,ENE,71,0.0,3.0,58,0.00,,,0.00,450,WxPro DR1,2013-04-06 13:13:00,
2013-04-06 09:18:00,35.8,21.2,30.32,NNE,26,1.0,6.0,55,0.00,,,0.00,466,WxPro DR1,2013-04-06 13:18:00,
2013-04-06 09:23:00,36.0,21.4,30.32,ENE,60,1.0,6.0,55,0.00,,,0.00,482,WxPro DR1,2013-04-06 13:23:00,
2013-04-06 09:28:00,36.5,21.1,30.32,NE,41,2.0,5.0,53,0.00,,,0.00,497,WxPro DR1,2013-04-06 13:28:00,
2013-04-06 09:33:00,36.4,21.3,30.32,NE,42,0.0,4.0,54,0.00,,,0.00,227,WxPro DR1,2013-04-06 13:33:00,
2013-04-06 09:38:00,36.9,21.4,30.32,East,101,1.0,6.0,53,0.00,,,0.00,529,WxPro DR1,2013-04-06 13:38:00,
2013-04-06 09:43:00,36.3,21.2,30.32,NNE,21,0.0,6.0,54,0.00,,,0.00,543,WxPro DR1,2013-04-06 13:43:00,
2013-04-06 09:48:00,36.9,21.8,30.32,East,87,0.0,4.0,54,0.00,,,0.00,559,WxPro DR1,2013-04-06 13:48:00,
2013-04-06 09:53:00,38.4,21.9,30.32,ESE,109,4.0,6.0,51,0.00,,,0.00,573,WxPro DR1,2013-04-06 13:53:00,
2013-04-06 09:58:00,38.1,22.3,30.32,East,99,3.0,6.0,53,0.00,,,0.00,589,WxPro DR1,2013-04-06 13:58:00,
2013-04-06 10:03:00,38.2,22.0,30.32,East,99,0.0,5.0,52,0.00,,,0.00,594,WxPro DR1,2013-04-06 14:03:00,
2013-04-06 10:08:00,38.8,22.2,30.31,East,83,0.0,4.0,51,0.00,,,0.00,613,WxPro DR1,2013-04-06 14:08:00,
2013-04-06 10:13:00,39.2,21.7,30.31,ESE,117,5.0,6.0,49,0.00,,,0.00,628,WxPro DR1,2013-04-06 14:13:00,
2013-04-06 10:18:00,38.2,21.2,30.32,East,80,2.0,7.0,50,0.00,,,0.00,643,WxPro DR1,2013-04-06 14:18:00,
2013-04-06 10:23:00,38.1,21.7,30.32,SE,130,0.0,7.0,51,0.00,,,0.00,657,WxPro DR1,2013-04-06 14:23:00,
2013-04-06 10:28:00,38.3,21.5,30.32,ENE,59,0.0,6.0,50,0.00,,,0.00,671,WxPro DR1,2013-04-06 14:28:00,
2013-04-06 10:33:00,38.9,21.2,30.32,East,80,2.0,4.0,48,0.00,,,0.00,684,WxPro DR1,2013-04-06 14:33:00,
2013-04-06 10:38:00,37.9,21.3,30.32,NNE,15,0.0,5.0,51,0.00,,,0.00,696,WxPro DR1,2013-04-06 14:38:00,
2013-04-06 10:43:00,38.1,22.0,30.32,SE,131,1.0,5.0,52,0.00,,,0.00,705,WxPro DR1,2013-04-06 14:43:00,
2013-04-06 10:48:00,39.6,22.0,30.32,NNE,23,4.0,6.0,49,0.00,,,0.00,719,WxPro DR1,2013-04-06 14:48:00,
2013-04-06 10:53:00,39.5,21.9,30.32,East,95,2.0,7.0,49,0.00,,,0.00,729,WxPro DR1,2013-04-06 14:53:00,
2013-04-06 10:58:00,39.4,21.4,30.32,East,92,1.0,7.0,48,0.00,,,0.00,744,WxPro DR1,2013-04-06 14:58:00,
2013-04-06 11:03:00,39.6,21.8,30.32,SE,134,2.0,6.0,48,0.00,,,0.00,740,WxPro DR1,2013-04-06 15:03:00,
2013-04-06 11:08:00,39.8,20.7,30.32,NW,324,4.0,9.0,46,0.00,,,0.00,758,WxPro DR1,2013-04-06 15:08:00,
2013-04-06 11:13:00,38.7,21.1,30.32,NE,34,5.0,9.0,49,0.00,,,0.00,766,WxPro DR1,2013-04-06 15:13:00,
2013-04-06 11:18:00,39.0,21.5,30.32,North,10,3.0,10.0,49,0.00,,,0.00,777,WxPro DR1,2013-04-06 15:18:00,
2013-04-06 11:23:00,38.7,21.1,30.31,NNW,333,1.0,10.0,49,0.00,,,0.00,789,WxPro DR1,2013-04-06 15:23:00,
2013-04-06 11:28:00,39.5,21.0,30.31,East,91,5.0,6.0,47,0.00,,,0.00,796,WxPro DR1,2013-04-06 15:28:00,
2013-04-06 11:33:00,40.8,21.2,30.31,ESE,109,1.0,6.0,45,0.00,,,0.00,807,WxPro DR1,2013-04-06 15:33:00,
2013-04-06 11:38:00,41.5,20.6,30.31,ESE,116,3.0,6.0,43,0.00,,,0.00,816,WxPro DR1,2013-04-06 15:38:00,
2013-04-06 11:43:00,41.3,22.0,30.31,SE,145,2.0,5.0,46,0.00,,,0.00,823,WxPro DR1,2013-04-06 15:43:00,
2013-04-06 11:48:00,40.7,21.4,30.31,SW,226,1.0,5.0,46,0.00,,,0.00,828,WxPro DR1,2013-04-06 15:48:00,
2013-04-06 11:53:00,40.6,21.9,30.31,SE,131,4.0,5.0,47,0.00,,,0.00,835,WxPro DR1,2013-04-06 15:53:00,
2013-04-06 11:58:00,41.7,21.5,30.31,SE,141,2.0,5.0,44,0.00,,,0.00,842,WxPro DR1,2013-04-06 15:58:00,
2013-04-06 12:03:00,41.3,21.7,30.30,NNE,29,1.0,5.0,45,0.00,,,0.00,847,WxPro DR1,2013-04-06 16:03:00,
2013-04-06 12:08:00,41.4,22.3,30.30,East,99,1.0,5.0,46,0.00,,,0.00,856,WxPro DR1,2013-04-06 16:08:00,
2013-04-06 12:13:00,42.7,22.7,30.30,NE,47,2.0,6.0,45,0.00,,,0.00,861,WxPro DR1,2013-04-06 16:13:00,
2013-04-06 12:18:00,42.8,22.2,30.30,NE,48,1.0,6.0,44,0.00,,,0.00,868,WxPro DR1,2013-04-06 16:18:00,
2013-04-06 12:23:00,43.5,22.0,30.30,NE,35,1.0,5.0,42,0.00,,,0.00,877,WxPro DR1,2013-04-06 16:23:00,
2013-04-06 12:28:00,44.1,22.5,30.29,ENE,64,0.0,4.0,42,0.00,,,0.00,875,WxPro DR1,2013-04-06 16:28:00,
2013-04-06 12:33:00,44.2,23.3,30.30,SE,138,3.0,9.0,43,0.00,,,0.00,877,WxPro DR1,2013-04-06 16:33:00,
2013-04-06 12:38:00,44.0,23.0,30.30,ESE,122,1.0,9.0,43,0.00,,,0.00,881,WxPro DR1,2013-04-06 16:38:00,
2013-04-06 12:43:00,44.3,23.2,30.29,SE,130,3.0,7.0,43,0.00,,,0.00,884,WxPro DR1,2013-04-06 16:43:00,
2013-04-06 12:48:00,44.2,23.0,30.29,SE,139,6.0,6.0,43,0.00,,,0.00,884,WxPro DR1,2013-04-06 16:48:00,
2013-04-06 12:53:00,43.7,22.6,30.29,SE,124,0.0,9.0,43,0.00,,,0.00,888,WxPro DR1,2013-04-06 16:53:00,
2013-04-06 12:58:00,43.0,21.6,30.29,SSE,151,3.0,9.0,42,0.00,,,0.00,888,WxPro DR1,2013-04-06 16:58:00,
2013-04-06 13:03:00,43.0,22.3,30.29,ESE,107,4.0,7.0,43,0.00,,,0.00,888,WxPro DR1,2013-04-06 17:03:00,
2013-04-06 13:08:00,43.7,21.6,30.29,SE,138,0.0,7.0,41,0.00,,,0.00,889,WxPro DR1,2013-04-06 17:08:00,
2013-04-06 13:14:00,43.3,22.2,30.29,SE,128,2.0,10.0,43,0.00,,,0.00,895,WxPro DR1,2013-04-06 17:14:00,
2013-04-06 13:19:00,43.2,21.6,30.28,SE,144,1.0,10.0,42,0.00,,,0.00,893,WxPro DR1,2013-04-06 17:19:00,
2013-04-06 13:24:00,44.0,21.2,30.28,SSE,165,2.0,5.0,40,0.00,,,0.00,891,WxPro DR1,2013-04-06 17:24:00,
2013-04-06 13:29:00,44.8,24.1,30.28,SSE,148,4.0,9.0,44,0.00,,,0.00,893,WxPro DR1,2013-04-06 17:29:00,
2013-04-06 13:34:00,45.2,23.5,30.28,SE,128,4.0,9.0,42,0.00,,,0.00,889,WxPro DR1,2013-04-06 17:34:00,
2013-04-06 13:39:00,45.3,23.2,30.28,NE,34,1.0,9.0,41,0.00,,,0.00,868,WxPro DR1,2013-04-06 17:39:00,
2013-04-06 13:44:00,45.8,22.9,30.28,ENE,57,4.0,6.0,40,0.00,,,0.00,872,WxPro DR1,2013-04-06 17:44:00,
2013-04-06 13:49:00,46.0,22.4,30.28,ESE,119,3.0,6.0,39,0.00,,,0.00,840,WxPro DR1,2013-04-06 17:49:00,
2013-04-06 13:54:00,45.9,21.9,30.28,East,80,0.0,6.0,38,0.00,,,0.00,881,WxPro DR1,2013-04-06 17:54:00,
2013-04-06 13:59:00,46.3,22.7,30.27,SSE,155,4.0,6.0,39,0.00,,,0.00,849,WxPro DR1,2013-04-06 17:59:00,
2013-04-06 14:04:00,46.1,22.7,30.27,SSE,157,3.0,9.0,39,0.00,,,0.00,849,WxPro DR1,2013-04-06 18:04:00,
2013-04-06 14:09:00,45.3,22.5,30.27,SE,125,0.0,9.0,40,0.00,,,0.00,854,WxPro DR1,2013-04-06 18:09:00,
2013-04-06 14:15:00,45.3,21.8,30.27,ESE,103,2.0,8.0,39,0.00,,,0.00,872,WxPro DR1,2013-04-06 18:15:00,
2013-04-06 14:20:00,45.8,22.8,30.27,ESE,102,5.0,11.0,40,0.00,,,0.00,863,WxPro DR1,2013-04-06 18:20:00,
2013-04-06 14:25:00,45.5,22.6,30.26,SE,145,6.0,11.0,40,0.00,,,0.00,849,WxPro DR1,2013-04-06 18:25:00,
2013-04-06 14:30:00,45.6,22.1,30.26,SSE,157,1.0,9.0,39,0.00,,,0.00,847,WxPro DR1,2013-04-06 18:30:00,
2013-04-06 14:35:00,45.7,22.2,30.26,SE,126,6.0,9.0,39,0.00,,,0.00,835,WxPro DR1,2013-04-06 18:35:00,
2013-04-06 14:40:00,46.2,22.4,30.26,South,185,5.0,7.0,39,0.00,,,0.00,833,WxPro DR1,2013-04-06 18:40:00,
2013-04-06 14:45:00,45.9,21.8,30.25,SE,146,1.0,7.0,38,0.00,,,0.00,824,WxPro DR1,2013-04-06 18:45:00,
2013-04-06 14:50:00,46.1,21.8,30.25,SE,128,7.0,7.0,38,0.00,,,0.00,824,WxPro DR1,2013-04-06 18:50:00,
2013-04-06 14:55:00,46.8,21.4,30.25,SW,223,1.0,9.0,36,0.00,,,0.00,805,WxPro DR1,2013-04-06 18:55:00,
2013-04-06 15:00:00,47.0,21.5,30.25,ESE,118,3.0,9.0,36,0.00,,,0.00,796,WxPro DR1,2013-04-06 19:00:00,
2013-04-06 15:05:00,47.7,22.4,30.24,SE,124,5.0,8.0,37,0.00,,,0.00,789,WxPro DR1,2013-04-06 19:05:00,
2013-04-06 15:10:00,48.0,21.7,30.23,ENE,59,3.0,6.0,35,0.00,,,0.00,779,WxPro DR1,2013-04-06 19:10:00,
2013-04-06 15:15:00,47.8,22.4,30.23,SE,126,3.0,9.0,36,0.00,,,0.00,708,WxPro DR1,2013-04-06 19:15:00,
2013-04-06 15:20:00,47.9,23.7,30.22,ESE,121,2.0,9.0,38,0.00,,,0.00,751,WxPro DR1,2013-04-06 19:20:00,
2013-04-06 15:25:00,48.3,23.8,30.22,ESE,103,3.0,7.0,38,0.00,,,0.00,747,WxPro DR1,2013-04-06 19:25:00,
2013-04-06 15:30:00,48.8,23.7,30.22,ESE,102,4.0,11.0,37,0.00,,,0.00,737,WxPro DR1,2013-04-06 19:30:00,
2013-04-06 15:35:00,48.6,24.1,30.21,ESE,121,6.0,11.0,38,0.00,,,0.00,728,WxPro DR1,2013-04-06 19:35:00,
2013-04-06 15:40:00,48.0,23.2,30.21,ESE,113,4.0,8.0,37,0.00,,,0.00,715,WxPro DR1,2013-04-06 19:40:00,
2013-04-06 15:45:00,48.4,23.8,30.21,SE,138,1.0,7.0,38,0.00,,,0.00,703,WxPro DR1,2013-04-06 19:45:00,
2013-04-06 15:50:00,49.1,25.2,30.20,SE,140,0.0,7.0,39,0.00,,,0.00,687,WxPro DR1,2013-04-06 19:50:00,
2013-04-06 15:55:00,49.9,24.7,30.20,ESE,122,0.0,6.0,37,0.00,,,0.00,680,WxPro DR1,2013-04-06 19:55:00,
2013-04-06 16:00:00,50.0,24.7,30.20,SE,124,5.0,10.0,37,0.00,,,0.00,664,WxPro DR1,2013-04-06 20:00:00,
2013-04-06 16:05:00,49.5,23.6,30.20,ENE,63,3.0,10.0,36,0.00,,,0.00,649,WxPro DR1,2013-04-06 20:05:00,
2013-04-06 16:10:00,49.0,24.5,30.20,SE,142,4.0,8.0,38,0.00,,,0.00,633,WxPro DR1,2013-04-06 20:10:00,
2013-04-06 16:15:00,49.1,24.6,30.20,SSE,161,4.0,9.0,38,0.00,,,0.00,619,WxPro DR1,2013-04-06 20:15:00,
2013-04-06 16:20:00,48.8,22.6,30.20,ESE,119,1.0,9.0,35,0.00,,,0.00,578,WxPro DR1,2013-04-06 20:20:00,
2013-04-06 16:25:00,49.0,23.2,30.19,ESE,102,3.0,7.0,36,0.00,,,0.00,584,WxPro DR1,2013-04-06 20:25:00,
2013-04-06 16:30:00,49.5,23.8,30.19,ESE,117,10.0,10.0,36,0.00,,,0.00,573,WxPro DR1,2013-04-06 20:30:00,
2013-04-06 16:35:00,48.9,24.4,30.19,ESE,115,1.0,10.0,38,0.00,,,0.00,541,WxPro DR1,2013-04-06 20:35:00,
2013-04-06 16:40:00,49.6,24.0,30.18,SE,143,5.0,10.0,36,0.00,,,0.00,538,WxPro DR1,2013-04-06 20:40:00,
2013-04-06 16:45:00,50.1,23.5,30.19,SE,129,6.0,9.0,35,0.00,,,0.00,480,WxPro DR1,2013-04-06 20:45:00,
2013-04-06 16:50:00,49.8,24.0,30.18,ENE,70,2.0,9.0,36,0.00,,,0.00,452,WxPro DR1,2013-04-06 20:50:00,
2013-04-06 16:55:00,49.7,23.9,30.18,ENE,74,3.0,9.0,36,0.00,,,0.00,413,WxPro DR1,2013-04-06 20:55:00,
2013-04-06 17:00:00,49.7,23.1,30.18,ESE,115,2.0,9.0,35,0.00,,,0.00,353,WxPro DR1,2013-04-06 21:00:00,
2013-04-06 17:05:00,49.6,23.5,30.18,NE,47,4.0,7.0,36,0.00,,,0.00,355,WxPro DR1,2013-04-06 21:05:00,
2013-04-06 17:10:00,49.7,24.3,30.17,SSE,159,3.0,5.0,37,0.00,,,0.00,387,WxPro DR1,2013-04-06 21:10:00,
2013-04-06 17:15:00,50.0,24.1,30.17,East,101,0.0,9.0,36,0.00,,,0.00,371,WxPro DR1,2013-04-06 21:15:00,
2013-04-06 17:20:00,49.8,24.6,30.17,ESE,119,2.0,9.0,37,0.00,,,0.00,278,WxPro DR1,2013-04-06 21:20:00,
2013-04-06 17:25:00,49.3,24.2,30.17,ESE,115,10.0,10.0,37,0.00,,,0.00,250,WxPro DR1,2013-04-06 21:25:00,
2013-04-06 17:30:00,49.0,24.4,30.17,ESE,103,6.0,10.0,38,0.00,,,0.00,223,WxPro DR1,2013-04-06 21:30:00,
2013-04-06 17:35:00,48.8,24.1,30.16,SE,132,6.0,10.0,38,0.00,,,0.00,190,WxPro DR1,2013-04-06 21:35:00,
2013-04-06 17:40:00,48.5,24.0,30.16,ESE,103,1.0,10.0,38,0.00,,,0.00,169,WxPro DR1,2013-04-06 21:40:00,
2013-04-06 17:45:00,48.2,23.8,30.16,SE,127,5.0,7.0,38,0.00,,,0.00,158,WxPro DR1,2013-04-06 21:45:00,
2013-04-06 17:50:00,48.0,24.4,30.16,SE,136,2.0,7.0,39,0.00,,,0.00,148,WxPro DR1,2013-04-06 21:50:00,
2013-04-06 17:55:00,48.0,24.6,30.16,SE,132,3.0,10.0,40,0.00,,,0.00,134,WxPro DR1,2013-04-06 21:55:00,
2013-04-06 18:00:00,47.9,24.2,30.16,ESE,112,1.0,10.0,39,0.00,,,0.00,121,WxPro DR1,2013-04-06 22:00:00,
2013-04-06 18:05:00,47.8,24.5,30.16,ESE,114,1.0,10.0,40,0.00,,,0.00,113,WxPro DR1,2013-04-06 22:05:00,
2013-04-06 18:10:00,47.7,24.6,30.16,ESE,117,2.0,9.0,40,0.00,,,0.00,102,WxPro DR1,2013-04-06 22:10:00,
2013-04-06 18:15:00,47.5,24.4,30.16,East,91,4.0,9.0,40,0.00,,,0.00,95,WxPro DR1,2013-04-06 22:15:00,
2013-04-06 18:20:00,47.0,24.5,30.16,ESE,110,1.0,7.0,41,0.00,,,0.00,105,WxPro DR1,2013-04-06 22:20:00,
2013-04-06 18:25:00,46.7,24.5,30.16,ESE,122,5.0,10.0,41,0.00,,,0.00,107,WxPro DR1,2013-04-06 22:25:00,
2013-04-06 18:30:00,46.3,23.9,30.16,ESE,118,4.0,13.0,41,0.00,,,0.00,118,WxPro DR1,2013-04-06 22:30:00,
2013-04-06 18:35:00,46.2,23.8,30.16,ESE,123,6.0,13.0,41,0.00,,,0.00,116,WxPro DR1,2013-04-06 22:35:00,
2013-04-06 18:40:00,45.9,23.6,30.16,East,90,1.0,13.0,41,0.00,,,0.00,95,WxPro DR1,2013-04-06 22:40:00,
2013-04-06 18:45:00,45.8,24.0,30.16,East,88,8.0,13.0,42,0.00,,,0.00,77,WxPro DR1,2013-04-06 22:45:00,
2013-04-06 18:50:00,45.6,23.8,30.15,East,91,2.0,14.0,42,0.00,,,0.00,62,WxPro DR1,2013-04-06 22:50:00,
2013-04-06 18:55:00,45.4,23.7,30.15,ENE,76,3.0,14.0,42,0.00,,,0.00,51,WxPro DR1,2013-04-06 22:55:00,
2013-04-06 19:00:00,45.3,23.6,30.15,East,84,1.0,8.0,42,0.00,,,0.00,44,WxPro DR1,2013-04-06 23:00:00,
2013-04-06 19:05:00,45.2,23.5,30.14,ESE,119,5.0,10.0,42,0.00,,,0.00,42,WxPro DR1,2013-04-06 23:05:00,
2013-04-06 19:10:00,45.0,22.8,30.14,ENE,78,3.0,10.0,41,0.00,,,0.00,37,WxPro DR1,2013-04-06 23:10:00,
2013-04-06 19:15:00,45.0,23.2,30.14,East,88,2.0,11.0,42,0.00,,,0.00,30,WxPro DR1,2013-04-06 23:15:00,
2013-04-06 19:20:00,44.9,22.7,30.14,ESE,108,3.0,11.0,41,0.00,,,0.00,23,WxPro DR1,2013-04-06 23:20:00,
2013-04-06 19:25:00,44.8,22.5,30.14,ESE,103,4.0,9.0,41,0.00,,,0.00,18,WxPro DR1,2013-04-06 23:25:00,
2013-04-06 19:30:00,44.6,22.3,30.14,East,86,3.0,10.0,41,0.00,,,0.00,11,WxPro DR1,2013-04-06 23:30:00,
2013-04-06 19:35:00,44.3,22.4,30.14,ESE,121,11.0,13.0,41,0.00,,,0.00,7,WxPro DR1,2013-04-06 23:35:00,
2013-04-06 19:40:00,44.1,22.6,30.14,ESE,105,4.0,13.0,42,0.00,,,0.00,0,WxPro DR1,2013-04-06 23:40:00,
2013-04-06 19:45:00,43.8,22.2,30.13,ESE,113,4.0,13.0,42,0.00,,,0.00,0,WxPro DR1,2013-04-06 23:45:00,
2013-04-06 19:50:00,43.6,22.6,30.13,ESE,119,4.0,13.0,43,0.00,,,0.00,0,WxPro DR1,2013-04-06 23:50:00,
2013-04-06 19:55:00,43.3,22.9,30.13,ESE,106,2.0,10.0,44,0.00,,,0.00,0,WxPro DR1,2013-04-06 23:55:00,
2013-04-06 20:00:00,43.0,22.8,30.13,ESE,113,2.0,10.0,44,0.00,,,0.00,0,WxPro DR1,2013-04-07 00:00:00,
2013-04-06 20:05:00,42.8,22.4,30.13,SE,130,4.0,10.0,44,0.00,,,0.00,0,WxPro DR1,2013-04-07 00:05:00,
2013-04-06 20:10:00,42.7,22.5,30.13,ESE,107,2.0,12.0,44,0.00,,,0.00,0,WxPro DR1,2013-04-07 00:10:00,
2013-04-06 20:15:00,42.7,22.4,30.12,SE,132,5.0,12.0,44,0.00,,,0.00,0,WxPro DR1,2013-04-07 00:15:00,
2013-04-06 20:20:00,42.6,22.7,30.12,East,94,3.0,12.0,45,0.00,,,0.00,0,WxPro DR1,2013-04-07 00:20:00,
2013-04-06 20:25:00,42.5,22.5,30.12,ESE,108,7.0,12.0,45,0.00,,,0.00,0,WxPro DR1,2013-04-07 00:25:00,
2013-04-06 20:30:00,42.5,22.5,30.11,SE,126,1.0,12.0,45,0.00,,,0.00,0,WxPro DR1,2013-04-07 00:30:00,
2013-04-06 20:35:00,42.3,22.5,30.12,ESE,110,2.0,10.0,45,0.00,,,0.00,0,WxPro DR1,2013-04-07 00:35:00,
2013-04-06 20:40:00,42.2,22.9,30.12,SE,124,5.0,9.0,46,0.00,,,0.00,0,WxPro DR1,2013-04-07 00:40:00,
2013-04-06 20:45:00,42.0,22.4,30.12,SE,126,4.0,10.0,45,0.00,,,0.00,0,WxPro DR1,2013-04-07 00:45:00,
2013-04-06 20:50:00,42.0,22.7,30.11,SE,126,7.0,10.0,46,0.00,,,0.00,0,WxPro DR1,2013-04-07 00:50:00,
2013-04-06 20:55:00,42.0,22.3,30.11,SE,125,3.0,10.0,45,0.00,,,0.00,0,WxPro DR1,2013-04-07 00:55:00,
2013-04-06 21:00:00,42.0,22.7,30.11,East,93,3.0,10.0,46,0.00,,,0.00,0,WxPro DR1,2013-04-07 01:00:00,
2013-04-06 21:05:00,42.0,22.7,30.11,ESE,118,4.0,10.0,46,0.00,,,0.00,0,WxPro DR1,2013-04-07 01:05:00,
2013-04-06 21:10:00,42.1,22.9,30.10,East,99,5.0,10.0,46,0.00,,,0.00,0,WxPro DR1,2013-04-07 01:10:00,
2013-04-06 21:15:00,42.3,22.5,30.11,SE,124,3.0,10.0,45,0.00,,,0.00,0,WxPro DR1,2013-04-07 01:15:00,
2013-04-06 21:20:00,42.4,22.6,30.11,SE,128,0.0,10.0,45,0.00,,,0.00,0,WxPro DR1,2013-04-07 01:20:00,
2013-04-06 21:25:00,42.4,23.0,30.11,East,98,3.0,11.0,46,0.00,,,0.00,0,WxPro DR1,2013-04-07 01:25:00,
2013-04-06 21:30:00,42.6,22.2,30.11,SE,128,3.0,11.0,44,0.00,,,0.00,0,WxPro DR1,2013-04-07 01:30:00,
2013-04-06 21:35:00,42.7,22.8,30.10,SE,127,3.0,11.0,45,0.00,,,0.00,0,WxPro DR1,2013-04-07 01:35:00,
2013-04-06 21:40:00,42.8,22.4,30.10,SE,132,6.0,11.0,44,0.00,,,0.00,0,WxPro DR1,2013-04-07 01:40:00,
2013-04-06 21:45:00,42.9,22.5,30.10,SE,126,9.0,10.0,44,0.00,,,0.00,0,WxPro DR1,2013-04-07 01:45:00,
2013-04-06 21:50:00,43.0,22.3,30.10,ESE,116,9.0,11.0,43,0.00,,,0.00,0,WxPro DR1,2013-04-07 01:50:00,
2013-04-06 21:55:00,43.1,22.1,30.09,ESE,121,1.0,11.0,43,0.00,,,0.00,0,WxPro DR1,2013-04-07 01:55:00,
2013-04-06 22:00:00,43.1,22.6,30.09,ESE,118,2.0,9.0,44,0.00,,,0.00,0,WxPro DR1,2013-04-07 02:00:00,
2013-04-06 22:05:00,43.1,22.1,30.09,ESE,111,2.0,7.0,43,0.00,,,0.00,0,WxPro DR1,2013-04-07 02:05:00,
2013-04-06 22:10:00,43.1,22.7,30.08,ESE,103,5.0,7.0,44,0.00,,,0.00,0,WxPro DR1,2013-04-07 02:10:00,
2013-04-06 22:15:00,43.1,22.7,30.08,ESE,114,4.0,8.0,44,0.00,,,0.00,0,WxPro DR1,2013-04-07 02:15:00,
2013-04-06 22:20:00,43.1,22.7,30.08,SE,126,0.0,8.0,44,0.00,,,0.00,0,WxPro DR1,2013-04-07 02:20:00,
2013-04-06 22:25:00,43.1,22.9,30.07,SE,127,0.0,9.0,44,0.00,,,0.00,0,WxPro DR1,2013-04-07 02:25:00,
2013-04-06 22:30:00,43.1,23.0,30.07,ESE,119,5.0,9.0,44,0.00,,,0.00,0,WxPro DR1,2013-04-07 02:30:00,
2013-04-06 22:35:00,43.3,22.8,30.06,SE,127,0.0,9.0,44,0.00,,,0.00,0,WxPro DR1,2013-04-07 02:35:00,
2013-04-06 22:40:00,43.4,22.9,30.06,SE,128,1.0,9.0,44,0.00,,,0.00,0,WxPro DR1,2013-04-07 02:40:00,
2013-04-06 22:45:00,43.4,23.0,30.06,ESE,120,2.0,8.0,44,0.00,,,0.00,0,WxPro DR1,2013-04-07 02:45:00,
2013-04-06 22:50:00,43.5,22.6,30.06,ESE,122,2.0,8.0,43,0.00,,,0.00,0,WxPro DR1,2013-04-07 02:50:00,
2013-04-06 22:55:00,43.6,23.1,30.05,ESE,113,4.0,6.0,44,0.00,,,0.00,0,WxPro DR1,2013-04-07 02:55:00,
2013-04-06 23:00:00,43.6,23.4,30.05,SE,132,3.0,7.0,45,0.00,,,0.00,0,WxPro DR1,2013-04-07 03:00:00,
2013-04-06 23:05:00,43.5,23.4,30.05,ESE,103,2.0,7.0,45,0.00,,,0.00,0,WxPro DR1,2013-04-07 03:05:00,
2013-04-06 23:10:00,43.6,22.8,30.05,ESE,105,1.0,5.0,43,0.00,,,0.00,0,WxPro DR1,2013-04-07 03:10:00,
2013-04-06 23:16:00,43.7,23.2,30.05,ESE,117,2.0,6.0,44,0.00,,,0.00,0,WxPro DR1,2013-04-07 03:16:00,
2013-04-06 23:21:00,43.7,23.2,30.04,ESE,117,2.0,6.0,44,0.00,,,0.00,0,WxPro DR1,2013-04-07 03:21:00,
2013-04-06 23:26:00,43.7,23.2,30.04,ESE,111,2.0,5.0,44,0.00,,,0.00,0,WxPro DR1,2013-04-07 03:26:00,
2013-04-06 23:31:00,43.7,23.2,30.03,ESE,114,3.0,6.0,44,0.00,,,0.00,0,WxPro DR1,2013-04-07 03:31:00,
2013-04-06 23:36:00,43.7,23.2,30.03,ESE,113,0.0,6.0,44,0.00,,,0.00,0,WxPro DR1,2013-04-07 03:36:00,
2013-04-06 23:41:00,43.7,23.2,30.04,ESE,107,1.0,7.0,44,0.00,,,0.00,0,WxPro DR1,2013-04-07 03:41:00,
2013-04-06 23:46:00,43.7,23.2,30.03,ESE,111,3.0,7.0,44,0.00,,,0.00,0,WxPro DR1,2013-04-07 03:46:00,
2013-04-06 23:51:00,43.7,23.2,30.04,ESE,113,1.0,5.0,44,0.00,,,0.00,0,WxPro DR1,2013-04-07 03:51:00,
2013-04-06 23:56:00,43.7,23.2,30.03,ESE,113,1.0,4.0,44,0.00,,,0.00,0,WxPro DR1,2013-04-07 03:56:00,